Other Public Products
Issued by NWS Grand Forks, ND

Home | Current Version | Previous Version | Graphics & Text | Print | Product List | Glossary On
Versions: 1 2 3 4 5 6 7 8 9 10 11 12 13 14 15 16 17 18 19 20 21 22 23 24 25 26 27 28 29 30 31 32 33 34 35 36 37 38 39 40 41 42 43 44 45 46 47 48 49 50
000
FPUS83 KFGF 220410
OPUFGF
PRAIRIE TO PINES WEATHER ROUNDUP
NATIONAL WEATHER SERVICE EASTERN NORTH DAKOTA/GRAND FORKS ND
1000 PM CST WED FEB 21 2018

 **SATELLITE DATA USED TO AUGMENT SKY COVER AT AUTOMATED STATIONS**
 *****  WEATHER ACROSS EASTERN NORTH DAKOTA  *****

CITY           SKY/WX    TMP DP  RH WIND       PRES   REMARKS
GRAND FORKS    FAIR       0  -4  83 S7        30.52S WCI -13
GRND FORKS AFB FAIR      -5 -11  76 SW3       30.51S
GRND FORKS NWS   N/A      2  -1  88 S3        30.50S
BUXTON           N/A     -1  -1  96 S6          N/A  WCI -12
DEVILS LAKE    FAIR      -5  -8  87 SE7       30.44S WCI -19
FARGO          FAIR       4  -3  73 S9        30.55S WCI -10
WAHPETON ARPT  FAIR       0  -6  78 SE6       30.58R WCI -12
$$

 *****  WEATHER ACROSS CENTRAL AND WESTERN NORTH DAKOTA  *****

CITY           SKY/WX    TMP DP  RH WIND       PRES   REMARKS
JAMESTOWN      FAIR       3  -2  79 S9        30.44S WCI -12
BISMARCK       FAIR       2  -5  72 E3        30.40R
MINOT          FAIR       1  -5  75 SE5       30.32S WCI  -9
MINOT AFB      FAIR      -2  -7  78 SE5       30.31F WCI -12
GARRISON         N/A     -1  -6  79 SE6       30.34R WCI -13
WILLISTON      FAIR       6  -5  60 S5        30.26R WCI  -3
DICKINSON      FAIR      -2 -10  69 S13       30.22R WCI -20
HETTINGER      FAIR      -2  -9  72 SE8       30.26S WCI -17
$$

 *****  OTHER OBSERVATIONS NORTHEAST NORTH DAKOTA  *****

CITY           SKY/WX    TMP DP  RH WIND       PRES   REMARKS
WALHALLA       FAIR       3  -2  78 CALM      30.47F
LANGDON        FAIR      -6  -9  84 S8        30.42R WCI -21
CAVALIER         N/A      0  -6  78 S8        30.50R WCI -15
GRAFTON        FAIR      -2  -8  78 S7        30.53F WCI -16
CANDO          FAIR      -8 -11  84 SE8       30.43S WCI -23
FORT TOTTEN      N/A      3  -4  73 SE6       29.95S WCI  -8
ROLLA          FAIR      -4  -8  84 SW10      30.36F WCI -21
RUGBY          FAIR       0  -4  85 S12       30.38S WCI -18
 ***** THE ABOVE OBSERVATIONS ARE NON NWS ARE NOT QUALITY
        CONTROLLED AND MAY MIS-REPORT RAIN FOR SNOW...
$$

 *****  OTHER OBSERVATIONS SOUTHEAST NORTH DAKOTA *****

CITY           SKY/WX    TMP DP  RH WIND       PRES   REMARKS
COOPERSTOWN    FAIR      -2  -8  78 S12       30.48R WCI -20
VALLEY CITY    FAIR       3  -2  78 S13G18    30.49S WCI -14
OAKES            N/A     -4  -9  77 SE9       30.48F WCI -20
GWINNER          N/A     -4  -9  77 CALM      30.52R
SHEYENNE NWR     N/A     -3  -8  79 S2        29.95S
BUFFALO          N/A      5  -2  71 NW10        N/A  WCI -10
WYNDMERE       NOT AVBL
 ***** THE ABOVE OBSERVATIONS ARE NON NWS ARE NOT QUALITY
       CONTROLLED AND MAY MIS-REPORT RAIN FOR SNOW...
$$

  *****  WEATHER ACROSS NORTHERN MINNESOTA  *****

CITY           SKY/WX    TMP DP  RH WIND       PRES   REMARKS
FLAG ISLAND    FAIR      -2  -8  78 SW8       30.48S WCI -17
WARROAD        FAIR       1  -4  78 SW8       30.50S WCI -12
ROSEAU         FAIR       1  -4  78 SW6       30.51R WCI -10
HALLOCK        FAIR      -6  -9  84 S7        30.51S WCI -20
THF RVR FALLS  FAIR       1  -3  83 SW7       30.53R WCI -12
HALSTAD        NOT AVBL
FOSSTON        FAIR      -6 -11  77 S6        30.52S WCI -18
BAUDETTE       FAIR       0  -7  72 SW6       30.49S WCI -12
WASKISH        FAIR      -9 -15  77 CALM      30.52S
CROOKSTON      FAIR      -4  -9  77 S8        30.55S WCI -19
$$
  *****  WEATHER ACROSS CENTRAL AND WEST MINNESOTA  *****

CITY           SKY/WX    TMP DP  RH WIND       PRES   REMARKS
BEMIDJI        FAIR      -3 -10  73 CALM      30.51S
PARK RAPIDS    FAIR      -2  -9  72 CALM      30.53R
WADENA         FAIR       1  -6  71 S3        30.56R
DETROIT LAKES  FAIR       3  -4  72 S7        30.54R WCI  -9
MOORHEAD       FAIR       3  -4  72 S8        30.56F WCI -10
FERGUS FALLS   FAIR       7  -2  66 SE6       30.57F WCI  -3
ELBOW LAKE     FAIR       3  -3  75 E6        30.57R WCI  -8
MORRIS MN      FAIR       1  -6  71 SE7       30.57S WCI -11
STAPLES        FAIR       0  -8  71 CALM      30.57R
WHEATON        FAIR       0  -8  71 SE7       30.59R WCI -13
$$
  *****  WEATHER ELSEWHERE ACROSS MINNESOTA  *****

CITY           SKY/WX    TMP DP  RH WIND       PRES   REMARKS
DULUTH         FAIR      11  -2  56 SW8       30.56R WCI  -1
INTRNTL FALLS  FAIR       5  -5  63 W7        30.52R WCI  -7
ELY            FAIR       7   0  72 SW5       30.52R WCI  -2
CLOQUET        FAIR      10  -2  56 SW5       30.57R WCI   2
BRAINERD       FAIR       8  -4  58 S6        30.58R WCI  -2
HIBBING        FAIR      -5  -8  87 S3        30.54R
ALEXANDRIA     FAIR       4  -3  73 S7        30.56R WCI  -8
SAINT CLOUD    FAIR       0  -3  87 CALM      30.61R
MINNEAPOLIS    MOCLDY    15   5  64 S5        30.65R WCI   8
$$

  *****  WEATHER ACROSS SOUTH DAKOTA  *****

CITY           SKY/WX    TMP DP  RH WIND       PRES   REMARKS
SIOUX FALLS    CLOUDY    14   6  70 E7        30.53F WCI   4
BROOKINGS      FAIR       8   1  73 SE10      30.51F WCI  -6
WATERTOWN      FAIR       7   1  76 SE9       30.48S WCI  -7
HURON          FAIR      10   3  73 S13       30.49S WCI  -5
SISSETON         N/A     -2  -6  83 CALM      30.54R
ABERDEEN       FAIR       2  -5  72 SE5       30.50R WCI  -8
MITCHELL       FAIR      12   5  73 S12       30.53R WCI  -2
PIERRE         FAIR      12   6  77 SE22      30.35S WCI  -7
MOBRIDGE       FAIR       5  -2  72 SE15      30.33F WCI -13
RAPID CITY     FAIR       8  -2  63 S14       30.20R WCI  -8
$$

  *****  SOME WEATHER IN NEARBY STATES *****

CITY           SKY/WX    TMP DP  RH WIND       PRES   REMARKS
GLASGOW MT     FAIR      -8 -14  74 E12       30.16S WCI -27
GREAT FALLS MT FAIR       4  -5  66 SW10      29.99R WCI -11
CHEYENNE WY    CLOUDY    13   7  77 CALM      30.08F
SCOTTSBLUFF NE FAIR      13   8  81 E9        30.21S WCI   1
OMAHA NE       CLOUDY    24  15  68 NE8       30.55F WCI  15
DES MOINES IA  CLOUDY    24  15  68 NE12      30.57F WCI  13
DAVENPORT IA   FAIR      27  18  69 NE10      30.61F WCI  17
CHICAGO IL     CLOUDY    29  19  66 NE12      30.62F WCI  19
EAU CLAIRE WI  FAIR       7   1  76 CALM      30.66R
LA CROSSE WI   FAIR      19  15  84 CALM      30.67R
$$

  *****  SOME NATIONAL WEATHER *****

CITY           SKY/WX    TMP DP  RH WIND       PRES   REMARKS
LA GUARDIA NY  CLOUDY    59  49  69 N8        30.37R
RALEIGH NC     FAIR      68  63  84 S9        30.43S
ATLANTA GA     FAIR      69  63  81 S6        30.37R
NEW ORLEANS LA CLOUDY    75  74  96 SE9       30.24S FOG
OKLAHOMA CITY  FRZ DRZL  25  24  96 N10       30.35R VSB 3/4 WCI  15
ALBUQUERQUE NM CLOUDY    40  22  48 E15       30.02R
SALT LAKE CITY MOCLDY    26  14  60 SW3       30.08F
LOS ANGELES CA FAIR      55  29  36 NW6       30.15R
BOISE ID       CLOUDY    30  18  60 S3        30.04F
SEATTLE WA     LGT SNOW  31  28  89 SE8       30.17F FOG     WCI  23
$$

*** WEATHER ACROSS MANITOBA...SASKATCHEWAN AND ONTARIO ***
                ***ONTARIO***

CITY           SKY/WX    TMP DP  RH WIND       PRES   REMARKS
GERALDTON      NOT AVBL
THUNDER BAY    NOT AVBL
SIOUX LOOKOUT  NOT AVBL
TORONTO        NOT AVBL
BIG TROUT LK   NOT AVBL
PICKLE LAKE    NOT AVBL
DRYDEN         NOT AVBL
KENORA         NOT AVBL
$$
                *** MANITOBA***

CITY           SKY/WX    TMP DP  RH WIND       PRES   REMARKS
BRANDON        NOT AVBL
DAUPHIN        NOT AVBL
ISLAND LAKE    NOT AVBL
PILOT MOUND    NOT AVBL
THE PAS        NOT AVBL
THOMPSON       NOT AVBL
WINNIPEG       NOT AVBL
$$
                ***SASKATCHEWAN***

CITY           SKY/WX    TMP DP  RH WIND       PRES   REMARKS
ESTEVAN        NOT AVBL
KINDERSLEY     NOT AVBL
LLOYDMINSTER   NOT AVBL
PRINCE ALBERT  NOT AVBL
REGINA         NOT AVBL
YORKTON        NOT AVBL
N. BATTLEFORD  NOT AVBL
LA RONGE       NOT AVBL
SASKATOON      NOT AVBL



USA.gov is the U.S. government's official web portal to all federal, state and local government web resources and services.